094  
ASUS41 KPHI 221713  
RWRPHI  
 
REGIONAL WEATHER ROUNDUP  
NATIONAL WEATHER SERVICE MOUNT HOLLY NJ  
100 PM EDT TUE MAY 22 2018  
 
NOTE: "FAIR" INDICATES FEW OR NO CLOUDS BELOW 12,000 FEET WITH NO  
SIGNIFICANT WEATHER AND/OR S TO VISIBILITY
.  
 
* = STATION DOES NOT REPORT PRECIPITATION (E.G. RAIN, SNOW, ETC.)  
OR FOG.
 
 
NJZ015>026-221800-  
SOUTHERN NEW JERSEY  
 
CITY SKY/WX TMP DP RH WIND PRES REMARKS
 
POMONA CLOUDY 69 56 62 SE7 30.11F  
WILDWOOD* CLOUDY 68 61 78 SE10 30.11F  
MILLVILLE PTSUNNY 69 55 60 VRB7 30.10F  
WRIGHTSTOWN CLOUDY 68 57 68 SE5 30.07F  
MOUNT HOLLY CLOUDY 66 61 84 CALM 30.10F  
TRENTON CLOUDY 67 57 70 S6 30.10F  
 

 
NJZ001>014-221800-  
NORTHERN NEW JERSEY  
 
CITY SKY/WX TMP DP RH WIND PRES REMARKS
 
SUSSEX LGT RAIN 64 56 75 CALM 30.11S  
ANDOVER* N/A 63 54 72 SW8 30.12R  
MORRISTOWN CLOUDY 68 52 56 S9 30.12F  
NEWARK CLOUDY 66 53 63 SE8 30.11F  
TETERBORO CLOUDY 67 50 54 S9 30.11F  
CALDWELL CLOUDY 67 48 50 S8 30.11F  
SOMERVILLE CLOUDY 65 57 75 S7 30.10F  
ALLAIRE* LGT RAIN 65 54 67 S8 30.14F  
TOMS RIVER* CLOUDY 69 56 62 SE9 30.12F  
 

 
PAZ043-044-047-054-055-060>062-066>071-221800-  
EASTERN PENNSYLVANIA  
 
CITY SKY/WX TMP DP RH WIND PRES REMARKS
 
PHILADELPHIA LGT RAIN 63 56 78 NE3 30.11F  
NORTH PHILA CLOUDY 67 57 70 SE5 30.12F  
BLUE BELL* CLOUDY 61 57 88 S6 30.12S  
DOYLESTOWN CLOUDY 64 56 75 S5 30.11F  
QUAKERTOWN* CLOUDY 64 55 72 CALM 30.12R  
PERKASIE* PTSUNNY 63 55 77 S3 30.12F  
POTTSTOWN RAIN 59 55 87 CALM 30.13R FOG  
LANCASTER LGT RAIN 61 59 94 SE10 30.08F FOG  
COATESVILLE LGT RAIN 59 59 100 SE6 30.12F  
READING RAIN 62 60 93 S6 30.10R  
ALLENTOWN LGT RAIN 66 57 72 S3 30.11F  
MOUNT POCONO LGT RAIN 56 53 90 S6 30.13S  
HAZLETON RAIN 59 55 88 SE6 30.13F  
LEHIGHTON RAIN 61 57 88 CALM 30.12F  
WILKES BARRE RAIN 58 56 93 SW3 30.11S FOG  
 

 
DEZALL-MDZ008-012-015-019-020-221800-  
DELAWARE AND EASTERN MARYLAND  
 
CITY SKY/WX TMP DP RH WIND PRES REMARKS
 
WILMINGTON CLOUDY 65 59 81 S9 30.10F  
DOVER PTSUNNY 67 62 85 SE10 30.08F  
GEORGETOWN PTSUNNY 76 61 59 SW10 30.09F  
EASTON RAIN 72 64 78 S7 30.13S  
PATUXENT CLOUDY 78 68 71 S8 30.08  
OCEAN CITY FAIR 69 64 84 S10 30.10F  
WALLOPS ISLAND CLOUDY 72 67 84 S9 30.10F  
CAMBRIDGE PTSUNNY 73 66 78 SW7G14 30.09F  
SALISBURY CLOUDY 78 66 66 SW8 30.08F  
 

 
PAZ001-021-NYZ056-072-MDZ011-DCZ001-221800-  
OTHER NEARBY LOCATIONS  
 
CITY SKY/WX TMP DP RH WIND PRES REMARKS
 
HARRISBURG LGT RAIN 65 62 90 CALM 30.06F  
STATE COLLEGE CLOUDY 66 64 94 CALM 30.05F FOG  
WILLIAMSPORT LGT RAIN 64 60 87 E7 30.03F  
BINGHAMTON CLOUDY 57 56 96 S10 30.05F  
NEW YORK CITY CLOUDY 65 52 62 VRB6 30.15F  
BALTIMORE CLOUDY 67 65 93 E6 30.07F  
WASHINGTON DC CLOUDY 71 65 81 S10 30.08S  
 

 
 
 
CLICK HERE TO GO TO PREVIOUS BULLETINS.

The Nexlab PA Page
The Nexlab NJ Page
The Nexlab DE Page
The Nexlab MD Page Main Text Page